Location: Kawakawa
(35.3830°S, 174.0670°E)
Time: 02:44:28
(UTC+13:00)

Cosmos 1709 Rocket - Pass Details

Date: 24 January 2019
Orbit: 949 x 1001 km, 82.9° (Epoch: 18 February)

Event Time Altitude Azimuth Distance (km) Brightness Sun altitude
Exits shadow 23:15:13 57° 74° (ENE) 1,150 4.0 -26.0°
Maximum altitude 23:15:34 58° 88° (E) 1,141 4.1 -26.1°
Drops below altitude 10° 23:21:43 10° 165° (SSE) 2,743 6.8 -26.8°
Sets 23:24:16 0° 168° (SSE) 3,690 7.6 -27.1°
